This is the latest recevied weather packets stored in our database for station/object CE7LGA-10. If no packets are shown the sender has not sent any weather packets the latest 10 day(s).
| Time | Temp. | Humidity | Pressure | Rain* | Wind** | Luminosity | Snow |
|---|---|---|---|---|---|---|---|
| 1788143903 | 23.89° C | 44% | 1005.3 hPa | - | - | - | - |
| 1788143003 | 23.89° C | 45% | 1005.1 hPa | - | - | - | - |
| 1788142103 | 23.33° C | 46% | 1005 hPa | - | - | - | - |
| 1788141203 | 22.78° C | 46% | 1004.7 hPa | - | - | - | - |
| 1788140303 | 22.78° C | 46% | 1004.2 hPa | - | - | - | - |
| 1788139403 | 22.78° C | 46% | 1004.1 hPa | - | - | - | - |
| 1788138503 | 23.33° C | 46% | 1003.9 hPa | - | - | - | - |
| 1788137603 | 23.33° C | 45% | 1003.7 hPa | - | - | - | - |
| 1788136702 | 23.89° C | 45% | 1003.7 hPa | - | - | - | - |
| 1788135802 | 23.89° C | 46% | 1003.6 hPa | - | - | - | - |
| 1788134902 | 25° C | 47% | 1003.4 hPa | - | - | - | - |
| 1788134002 | 24.44° C | 45% | 1003.3 hPa | - | - | - | - |
| 1788133102 | 25° C | 45% | 1002.9 hPa | - | - | - | - |
| 1788132202 | 25.56° C | 44% | 1002.8 hPa | - | - | - | - |
| 1788131302 | 26.11° C | 44% | 1002.4 hPa | - | - | - | - |
| 1788130401 | 25.56° C | 45% | 1002.1 hPa | - | - | - | - |
| 1788129505 | 25° C | 46% | 1002.1 hPa | - | - | - | - |
| 1788128604 | 25° C | 47% | 1002 hPa | - | - | - | - |
| 1788127704 | 25° C | 48% | 1001.9 hPa | - | - | - | - |
| 1788126804 | 25° C | 49% | 1001.7 hPa | - | - | - | - |
| 1788125904 | 25.56° C | 50% | 1001.6 hPa | - | - | - | - |
| 1788125004 | 25° C | 52% | 1001.4 hPa | - | - | - | - |
| 1788124104 | 24.44° C | 52% | 1001.3 hPa | - | - | - | - |
| 1788123204 | 23.89° C | 51% | 1001.3 hPa | - | - | - | - |
| 1788122304 | 23.89° C | 50% | 1001.3 hPa | - | - | - | - |
* Rain since midnight (hover to see other rain measurements)
** Current wind speed in m/s (hover to see current wind gust speed)